Hourly Data Report for February 28, 2012

HALIFAX STANFIELD INT'L A
NOVA SCOTIA

44°52'48.060" N
63°30'00.050" W
145.40 m
8202250
71395
YHZ

Download Data

Hourly Data (February 2012)
Hourly Data Report for February 28, 2012
TIME
LST
Temp Definition
°C
Dew Point Definition
°C
Rel Hum Definition
%
Precip. Amount Definition
mm

Wind Dir Definition
10's deg

Wind Spd Definition
km/h
Visibility Definition
km
Stn Press Definition
kPa
Hmdx Definition


Wind Chill Definition


Weather Definition


00:00 -6.0 -7.3 90   12 15 4.8 100.42   -12 Snow
01:00 -5.6 -6.8 91   12 20 3.2 100.29   -12 Snow
02:00 -4.9 -6.0 92   13 24 2.4 100.13   -12 Snow
03:00 -4.0 -5.0 93   13 26 3.2 99.95   -11 Snow
04:00 -2.9 -3.6 95   14 24 2.0 99.82   -10 Snow
05:00 -1.9 -2.5 96   13 28 3.2 99.71   -9 Snow
06:00 -1.3 -1.7 97   14 20 2.4 99.62   -7 Snow
07:00 -0.6 -1.0 97   14 26 2.4 99.56   -7 Snow
08:00 -0.1 -0.4 98   14 19 2.4 99.50   -5 Snow
09:00 0.2 0.0 99   14 19 0.8 99.45     Rain, Snow, Fog
10:00 0.3 0.2 99   14 11 1.6 99.41     Snow, Fog
11:00 1.9 1.2 95   23 4 3.2 99.37     Rain, Snow, Fog
12:00 0.4 0.1 98   32 19 0.4 99.36     Snow Showers, Fog
13:00 -1.0 -1.6 96   33 30 1.6 99.37   -8 Snow Showers, Fog
14:00 -2.5 -3.6 92   34 39 1.6 99.45   -11 Snow Showers, Fog
15:00 -3.8 -5.6 87   34 35 3.2 99.64   -12 Snow Showers, Fog
16:00 -4.3 -6.8 83   35 43 16.1 99.80   -13 Snow Showers
17:00 -4.6 -6.7 85   35 43 12.9 99.94   -14 Snow Showers
18:00 -5.3 -7.4 85   34 32 12.9 100.06   -14 Snow Showers
19:00 -5.8 -7.5 88   34 26 16.1 100.19   -14 Snow Showers
20:00 -5.9 -8.0 85   34 32 24.1 100.33   -14 Snow Showers
21:00 -5.9 -8.4 82   34 24 24.1 100.39   -13 Snow Showers
22:00 -6.1 -8.2 85   33 22 16.1 100.56   -13 Snow Showers
23:00 -6.4 -8.4 86   34 22 12.9 100.60   -14 Snow Showers

Notes on Data Quality.

Legend

  • E = Estimated
  • M = Missing
  • NA = Not Available*
  • [empty] = Indicates an unobserved value
Date modified: